Lid_Strength_Index
4 5 3 3 6 7 10 10 7 8 7 5 5 6 6 6 7 9 1 -0 -1 -1 -1 -1 -2 -2 -2 -2 -2 -2 -2 -2 -2 -2 -2 -2 -2 -2 -2 -2 -2 -2 -2 -2 -2 -2 -2 -2 -2
5 5 3 4 8 10 10 7 9 7 5 4 5 5 6 7 4 3 2 -0 -1 -1 -1 -1 -1 -2 -1 -2 -2 -2 -2 -3 -2 -2 -2 -2 -2 -2 -2 -2 -2 -2 -2 -2 -2 -2 -2 -2 -2
6 5 5 7 8 10 10 7 7 6 5 5 6 4 5 6 3 2 0 -1 -1 -1 -1 -2 -1 -2 -2 -2 -2 -2 -3 -3 -3 -3 -2 -2 -2 -2 -2 -2 -2 -2 -2 -2 -2 -2 -2 -2 -2
5 4 6 8 10 8 8 6 6 6 5 5 5 7 4 2 2 1 -0 -1 -1 -1 -1 -1 -1 -2 -2 -2 -2 -2 -3 -2 -2 -2 -2 -2 -2 -2 -2 -2 -2 -2 -2 -2 -2 -2 -2 -2 -2
5 5 8 8 9 8 7 6 5 6 6 5 5 7 6 3 1 0 -0 -1 -0 -1 -1 -2 -1 -2 -2 -2 -2 -2 -2 -2 -2 -2 -2 -2 -2 -2 -2 -3 -2 -2 -2 -2 -2 -2 -2 -2 -2
7 6 10 11 9 8 7 5 5 5 5 5 5 6 6 2 2 1 -0 -0 -1 -1 -1 -1 -0 -1 -1 -2 -2 -2 -2 -2 -2 -2 -2 -2 -2 -2 -2 -3 -2 -2 -2 -2 -2 -2 -2 -2 -2
8 8 10 10 9 8 7 5 6 5 5 6 4 7 5 3 1 0 -0 -1 -1 -1 -1 -1 -1 -1 -0 -1 -1 -2 -2 -2 -2 -2 -2 -2 -2 -3 -3 -3 -3 -2 -2 -2 -2 -2 -2 -2 -2
8 8 11 10 9 9 6 5 5 5 6 3 3 6 6 3 1 0 0 -0 -0 -1 -1 -1 -1 -1 -2 -2 0 -0 -1 -1 -2 -1 -1 -1 -1 -2 -1 -1 -2 -2 -2 -2 -2 -2 -2 -2 -2
8 10 11 11 10 8 6 6 6 6 5 4 4 4 3 2 1 1 1 1 1 0 0 -1 -1 -1 -1 -2 -0 0 0 -1 -1 0 1 -0 -2 -2 -1 -1 -2 -2 -2 -2 -2 -2 -2 -1 -1
10 11 11 10 9 9 7 6 6 6 5 5 5 3 2 2 2 3 3 3 2 1 1 0 -1 -1 -1 -1 -2 -2 -2 -2 -2 -2 -2 -2 -2 -2 -1 -0 -0 -1 -2 -2 -2 -1 -0 -1 -2
11 11 11 10 10 10 9 8 6 6 7 5 5 4 4 3 3 3 2 2 2 1 0 1 0 -1 -1 -1 -1 -1 -2 -2 -2 -2 -2 -2 -2 -2 -2 -2 -2 -2 -0 -2 -2 -2 -2 -1 -2
11 11 10 10 10 11 11 8 7 6 5 5 3 3 3 4 4 3 3 2 2 1 0 0 0 0 0 -1 -1 -1 -1 -1 -1 -2 -2 -2 -1 -1 -1 -2 -2 -2 -2 -2 -2 -2 -2 -2 -2
11 12 11 11 11 11 10 10 7 7 5 6 3 3 4 4 3 2 2 1 1 1 0 0 -0 -1 0 0 -1 -1 -1 -1 -1 -2 -2 -2 -1 -1 -1 -1 -2 -2 -2 -2 -2 -2 -2 -2 -2
11 11 12 11 11 11 11 11 10 6 5 5 4 4 3 3 3 3 2 2 2 1 1 -0 -0 -1 -1 -0 0 -1 -1 -1 -1 -1 -2 -2 -1 -1 -1 -1 -1 -1 -2 -1 -1 -2 -1 -1 -1
11 13 12 11 10 11 11 13 12 8 5 5 4 4 4 3 3 3 2 2 1 1 0 0 -0 -1 -1 -1 -0 -0 -0 -0 -1 -1 -2 -2 -2 -1 -1 -1 -1 -1 -1 -0 -1 -1 -1 -1 -1
12 11 15 11 11 11 12 13 10 9 8 6 4 4 4 4 3 2 2 1 1 1 1 0 0 -0 -0 -1 -1 -1 -0 -1 -1 -1 -1 -2 -1 -1 -1 -1 -1 -1 -0 -0 -0 -0 -0 -1 -0
14 14 13 13 11 11 11 12 11 10 10 7 5 4 4 4 3 2 2 1 1 1 1 1 -0 0 -0 -1 -1 -1 -1 -1 -1 -1 -1 -1 -1 -1 -1 -1 -1 -1 1 1 0 0 0 0 0
17 15 14 13 12 12 12 12 11 11 10 9 7 4 5 4 4 2 2 1 1 1 0 0 0 -0 -0 -0 -1 -1 -1 -1 -1 -1 -1 -1 -1 -1 -1 -0 0 1 1 2 2 2 2 2 1
13 13 14 13 12 12 12 11 9 11 10 9 8 7 5 4 3 2 2 1 1 1 1 1 1 0 0 0 1 1 1 0 -0 -1 -1 -1 -1 -1 -1 -1 0 1 2 2 2 2 3 2 3
13 15 14 14 13 13 13 12 10 10 10 9 7 6 6 5 3 3 2 2 2 1 1 1 1 0 0 0 0 0 0 -0 -0 -1 -1 -1 -1 -1 -1 -1 0 1 1 1 2 3 3 2 3
14 14 14 14 14 14 14 14 12 11 10 10 10 8 7 6 6 4 3 2 2 2 1 1 1 1 0 -0 0 0 -0 0 0 0 -0 -1 -1 -1 -1 -1 -0 0 1 1 1 2 3 2 3
16 14 14 15 14 16 14 16 13 11 11 11 9 7 7 6 6 5 5 3 2 2 1 1 1 0 0 -0 1 1 2 2 1 1 -0 -0 -1 -1 -1 -1 -1 -1 -0 -0 -0 0 1 2 2
14 13 13 15 15 15 15 16 13 14 13 11 9 7 7 6 6 6 6 5 4 4 1 1 1 1 0 0 0 1 1 1 0 0 0 0 -1 -1 -1 -1 -1 -1 -1 -0 -0 1 1 2 1
14 14 15 15 15 18 14 15 14 14 13 10 9 8 8 6 7 8 8 7 7 6 6 4 2 1 0 0 0 1 1 1 1 1 1 1 0 -0 -0 0 0 -0 -0 0 1 0 1 1 0
14 14 18 18 18 19 18 18 14 12 11 10 10 9 10 9 8 9 8 8 8 7 6 5 3 2 1 1 1 1 1 1 1 1 1 1 1 1 1 0 1 0 -0 -0 0 1 1 1 1
15 14 17 20 20 18 19 18 14 11 12 11 11 11 10 9 9 9 9 8 7 6 5 5 2 2 2 1 2 1 1 1 1 1 1 1 1 0 -0 -0 -1 -1 -1 -0 0 1 0 2 2
15 16 14 19 22 18 16 15 13 11 12 12 12 12 11 9 9 8 7 6 6 6 5 5 5 5 4 3 3 4 5 5 5 5 4 0 0 0 -0 -0 -0 -0 -1 0 1 2 2 2 3
14 14 18 17 20 21 19 18 15 13 13 13 12 12 11 10 10 9 8 7 6 5 5 5 4 4 4 3 3 3 3 3 2 2 4 3 0 1 0 -0 -0 0 0 1 1 3 3 3 5
15 16 16 15 16 18 20 17 13 14 13 13 12 11 10 9 9 8 8 8 7 6 5 5 4 4 4 4 3 3 3 3 2 2 2 2 2 2 1 1 1 3 4 4 4 5 5 6 7
13 14 14 17 19 18 18 16 15 13 12 12 12 11 10 8 8 8 8 7 7 6 6 5 5 5 5 4 4 4 3 3 4 4 4 4 4 5 5 6 6 7 7 7 7 7 7 8 9